When you browse on this site, cookies collect data to enhance your experience and personalize the content and advertising you see.
Visit our Privacy Policy to learn more. By continuing to use the site, you agree to this use of cookies and data.
  • In Romania
  • List of Countries
  • For 7 days
  • Water Temperature
  • Satellite Maps
  • Weather Map
  • Weather Widgets
  • user-avatar
    Login

    Hourly Weather Ayacucho

    Today, 20 May, Monday

    Time Temperature Precipitation Wind Pressure Humidity
    00:00 +9°C° 0 mm 1 mps 539 mmHg 76%
    01:00 +8°C° 0 mm 0 mps 539 mmHg 77%
    02:00 +8°C° 0 mm 0 mps 539 mmHg 76%
    03:00 +8°C° 0 mm 0 mps 539 mmHg 76%
    04:00 +8°C° 0 mm 0 mps 539 mmHg 75%
    05:00 +9°C° 0 mm 0 mps 539 mmHg 73%
    06:00 +10°C° 0 mm 0 mps 540 mmHg 70%
    07:00 +11°C° 0 mm 0 mps 541 mmHg 68%
    08:00 +14°C° 0 mm 1 mps 542 mmHg 56%
    09:00 +18°C° 0 mm 1 mps 543 mmHg 45%
    10:00 +20°C° 0 mm 1 mps 545 mmHg 34%
    11:00 +21°C° 0 mm 1 mps 545 mmHg 31%
    12:00 +21°C° 0 mm 2 mps 545 mmHg 28%
    13:00 +23°C° 0 mm 2 mps 545 mmHg 25%
    14:00 +23°C° 0 mm 2 mps 544 mmHg 27%
    15:00 +21°C° 0 mm 2 mps 544 mmHg 28%
    16:00 +21°C° 0 mm 3 mps 543 mmHg 30%
    17:00 +18°C° 0 mm 2 mps 542 mmHg 43%
    18:00 +15°C° 0 mm 2 mps 541 mmHg 55%
    19:00 +12°C° 0 mm 1 mps 540 mmHg 68%
    20:00 +11°C° 0 mm 1 mps 540 mmHg 72%
    21:00 +11°C° 0 mm 1 mps 540 mmHg 77%
    22:00 +10°C° 0 mm 1 mps 540 mmHg 81%
    23:00 +10°C° 0 mm 1 mps 540 mmHg 83%

    Tomorrow, 21 May, Tuesday

    Time Temperature Precipitation Wind Pressure Humidity
    00:00 +9°C° 0 mm 1 mps 539 mmHg 85%
    01:00 +9°C° 0 mm 1 mps 539 mmHg 87%
    02:00 +8°C° 0 mm 1 mps 538 mmHg 88%
    03:00 +7°C° 0 mm 0 mps 538 mmHg 88%
    04:00 +6°C° 0 mm 0 mps 537 mmHg 89%
    05:00 +8°C° 0 mm 1 mps 538 mmHg 86%
    06:00 +10°C° 0 mm 1 mps 539 mmHg 82%
    07:00 +11°C° 0 mm 1 mps 540 mmHg 79%
    08:00 +13°C° 0 mm 1 mps 541 mmHg 64%
    09:00 +16°C° 0 mm 1 mps 543 mmHg 50%
    10:00 +18°C° 0 mm 2 mps 544 mmHg 36%
    11:00 +19°C° 0 mm 2 mps 544 mmHg 34%
    12:00 +20°C° 0 mm 2 mps 544 mmHg 32%
    13:00 +21°C° 0 mm 3 mps 544 mmHg 30%
    14:00 +21°C° 0 mm 3 mps 543 mmHg 34%
    15:00 +20°C° 0 mm 3 mps 543 mmHg 38%
    16:00 +20°C° 0 mm 3 mps 542 mmHg 42%
    17:00 +17°C° 0 mm 3 mps 541 mmHg 56%
    18:00 +14°C° 0 mm 2 mps 540 mmHg 69%
    19:00 +12°C° 0 mm 1 mps 539 mmHg 83%
    20:00 +11°C° 0 mm 1 mps 540 mmHg 85%
    21:00 +11°C° 0 mm 1 mps 540 mmHg 87%
    22:00 +9°C° 0 mm 0 mps 540 mmHg 89%
    23:00 +9°C° 0 mm 0 mps 540 mmHg 90%

    Day after tomorrow, 22 May, Wednesday

    Time Temperature Precipitation Wind Pressure Humidity
    00:00 +10°C° 0 mm 1 mps 540 mmHg 90%
    01:00 +9°C° 0 mm 1 mps 540 mmHg 91%
    02:00 +9°C° 0 mm 1 mps 539 mmHg 91%
    03:00 +8°C° 0 mm 0 mps 539 mmHg 91%
    04:00 +7°C° 0 mm 0 mps 538 mmHg 91%
    05:00 +9°C° 0 mm 0 mps 539 mmHg 88%
    06:00 +11°C° 0 mm 1 mps 540 mmHg 85%
    07:00 +12°C° 0 mm 1 mps 541 mmHg 82%
    08:00 +14°C° 0 mm 1 mps 543 mmHg 70%
    09:00 +16°C° 0 mm 1 mps 544 mmHg 58%
    10:00 +19°C° 0 mm 1 mps 545 mmHg 46%
    11:00 +19°C° 0.1 mm 2 mps 544 mmHg 44%
    12:00 +20°C° 0.1 mm 2 mps 544 mmHg 42%
    13:00 +21°C° 0.1 mm 3 mps 544 mmHg 40%
    14:00 +20°C° 0.1 mm 3 mps 543 mmHg 42%
    15:00 +20°C° 0.1 mm 2 mps 543 mmHg 44%
    16:00 +19°C° 0.1 mm 2 mps 542 mmHg 46%
    17:00 +17°C° 0 mm 2 mps 542 mmHg 56%
    18:00 +15°C° 0 mm 2 mps 541 mmHg 66%
    19:00 +12°C° 0 mm 1 mps 540 mmHg 76%
    20:00 +12°C° 0 mm 1 mps 540 mmHg 79%
    21:00 +11°C° 0 mm 1 mps 540 mmHg 82%
    22:00 +10°C° 0 mm 1 mps 540 mmHg 84%
    23:00 +10°C° 0 mm 1 mps 540 mmHg 85%

    23 May, Thursday

    Time Temperature Precipitation Wind Pressure Humidity
    00:00 +8°C° 0 mm 0 mps 539 mmHg 86%
    01:00 +8°C° 0 mm 0 mps 539 mmHg 87%
    02:00 +7°C° 0 mm 0 mps 539 mmHg 87%
    03:00 +7°C° 0 mm 0 mps 538 mmHg 87%
    04:00 +7°C° 0 mm 0 mps 538 mmHg 87%
    05:00 +9°C° 0 mm 1 mps 539 mmHg 84%
    06:00 +10°C° 0 mm 1 mps 540 mmHg 81%
    07:00 +11°C° 0 mm 1 mps 541 mmHg 77%
    08:00 +14°C° 0 mm 1 mps 542 mmHg 66%
    09:00 +16°C° 0 mm 1 mps 544 mmHg 55%
    10:00 +18°C° 0 mm 2 mps 545 mmHg 44%
    11:00 +19°C° 0 mm 2 mps 545 mmHg 40%
    12:00 +20°C° 0 mm 2 mps 544 mmHg 37%
    13:00 +21°C° 0 mm 2 mps 544 mmHg 34%
    14:00 +21°C° 0 mm 3 mps 544 mmHg 35%
    15:00 +21°C° 0 mm 3 mps 543 mmHg 37%
    16:00 +20°C° 0 mm 3 mps 543 mmHg 38%
    17:00 +17°C° 0 mm 3 mps 542 mmHg 53%
    18:00 +14°C° 0 mm 2 mps 541 mmHg 67%
    19:00 +11°C° 0 mm 1 mps 540 mmHg 81%
    20:00 +11°C° 0 mm 1 mps 540 mmHg 83%
    21:00 +10°C° 0 mm 1 mps 540 mmHg 85%
    22:00 +9°C° 0 mm 1 mps 540 mmHg 87%
    23:00 +9°C° 0 mm 1 mps 539 mmHg 87%

    24 May, Friday

    Time Temperature Precipitation Wind Pressure Humidity
    00:00 +8°C° 0 mm 1 mps 539 mmHg 88%
    01:00 +8°C° 0 mm 1 mps 539 mmHg 89%
    02:00 +7°C° 0 mm 0 mps 538 mmHg 89%
    03:00 +6°C° 0 mm 0 mps 538 mmHg 89%
    04:00 +6°C° 0 mm 0 mps 537 mmHg 89%
    05:00 +7°C° 0 mm 0 mps 539 mmHg 86%
    06:00 +8°C° 0 mm 0 mps 540 mmHg 82%
    07:00 +11°C° 0 mm 1 mps 541 mmHg 79%
    08:00 +13°C° 0 mm 1 mps 542 mmHg 66%
    09:00 +16°C° 0 mm 1 mps 543 mmHg 54%
    10:00 +18°C° 0 mm 2 mps 544 mmHg 41%
    11:00 +19°C° 0 mm 2 mps 544 mmHg 38%
    12:00 +20°C° 0 mm 3 mps 544 mmHg 34%
    13:00 +21°C° 0 mm 3 mps 544 mmHg 31%
    14:00 +21°C° 0 mm 3 mps 543 mmHg 34%
    15:00 +20°C° 0 mm 3 mps 543 mmHg 37%
    16:00 +20°C° 0 mm 4 mps 542 mmHg 40%
    17:00 +17°C° 0 mm 3 mps 541 mmHg 55%
    18:00 +14°C° 0 mm 2 mps 540 mmHg 69%
    19:00 +11°C° 0 mm 1 mps 540 mmHg 84%
    20:00 +10°C° 0 mm 1 mps 540 mmHg 86%
    21:00 +10°C° 0 mm 1 mps 540 mmHg 87%
    22:00 +9°C° 0 mm 1 mps 540 mmHg 89%
    23:00 +8°C° 0 mm 0 mps 539 mmHg 89%

    25 May, Saturday

    Time Temperature Precipitation Wind Pressure Humidity
    00:00 +8°C° 0 mm 0 mps 539 mmHg 89%
    01:00 +7°C° 0 mm 0 mps 538 mmHg 90%
    02:00 +7°C° 0 mm 0 mps 538 mmHg 89%
    03:00 +7°C° 0 mm 0 mps 537 mmHg 88%
    04:00 +6°C° 0 mm 0 mps 537 mmHg 87%
    05:00 +8°C° 0 mm 0 mps 538 mmHg 84%
    06:00 +9°C° 0 mm 0 mps 539 mmHg 80%
    07:00 +11°C° 0 mm 1 mps 541 mmHg 77%
    08:00 +13°C° 0 mm 1 mps 542 mmHg 66%
    09:00 +16°C° 0 mm 1 mps 543 mmHg 55%
    10:00 +20°C° 0 mm 1 mps 544 mmHg 44%
    11:00 +20°C° 0 mm 2 mps 544 mmHg 41%
    12:00 +21°C° 0 mm 2 mps 544 mmHg 38%
    13:00 +22°C° 0 mm 3 mps 544 mmHg 35%
    14:00 +21°C° 0 mm 3 mps 543 mmHg 38%
    15:00 +21°C° 0 mm 3 mps 543 mmHg 40%
    16:00 +20°C° 0 mm 3 mps 542 mmHg 43%
    17:00 +17°C° 0 mm 3 mps 541 mmHg 56%
    18:00 +14°C° 0 mm 2 mps 540 mmHg 69%
    19:00 +11°C° 0 mm 1 mps 539 mmHg 83%
    20:00 +11°C° 0 mm 1 mps 539 mmHg 85%
    21:00 +10°C° 0 mm 1 mps 539 mmHg 86%
    22:00 +10°C° 0 mm 1 mps 539 mmHg 88%
    23:00 +9°C° 0 mm 1 mps 539 mmHg 89%
    Show more